Regional Weather Roundup
Issued by NWS

Home | Current Version | Previous Version | Graphics & Text | Print | Product List | Glossary On
Versions: 1 2 3 4 5 6 7 8 9 10 11 12 13 14 15 16 17 18 19 20 21 22 23 24 25 26 27 28 29 30 31 32 33 34 35 36 37 38 39 40 41 42 43 44 45 46 47 48 49 50
697
ASUS44 KLIX 301823
RWRLA
LOUISIANA WEATHER ROUNDUP
NATIONAL WEATHER SERVICE NEW ORLEANS LA
100 PM CDT THU OCT 30 2014

NOTE: "FAIR" INDICATES FEW OR NO CLOUDS BELOW 12,000 FEET WITH NO
      SIGNIFICANT WEATHER AND/OR OBSTRUCTIONS TO VISIBILITY.
      SKY/WX - SKY CONDITION AND SIGNIFICANT WEATHER.
      TMP - AIR TEMPERATURE.    DP   - DEWPOINT TEMPERATURE.
      RH  - RELATIVE HUMIDITY.  PRES - PRESSURE.
      HX  - HEAT INDEX.         WCI  - WIND CHILL INDEX.

*  THESE STATIONS ARE NOT NWS OR FAA STATIONS AND ARE NOT UNDER
   NWS QUALITY CONTROL.

LAZ040-048-061>063-065-066-069-301900-
SOUTHEAST LOUISIANA

CITY           SKY/WX    TMP DP  RH WIND       PRES   REMARKS
N.O. AUDUBON     N/A    N/A N/A N/A MISG        N/A
6HR MIN TEMP:  62; 6HR MAX TEMP:  76;

N.O. INTL ARPT MOSUNNY   72  44  36 NE10      30.09F
6HR MIN TEMP:  63; 6HR MAX TEMP:  73;

N.O. LAKEFRONT SUNNY     71  44  37 NE10      30.10F
6HR MIN TEMP:  64; 6HR MAX TEMP:  72;

N.O. DOWNTOWN* FAIR      72  43  35 N8        30.08F
6HR MIN TEMP:  63; 6HR MAX TEMP:  72;

SLIDELL        SUNNY     72  42  34 NE8G17    30.08F
6HR MIN TEMP:  50; 6HR MAX TEMP:  73;

BATON ROUGE    SUNNY     71  40  32 NE10      30.11F
6HR MIN TEMP:  49; 6HR MAX TEMP:  72;

BOOTHVILLE     SUNNY     72  55  55 NE12G20   30.07F
6HR MIN TEMP:  68; 6HR MAX TEMP:  72;

BELLE CHASSE   SUNNY     74  44  34 NE12      30.08F
6HR MIN TEMP:  61; 6HR MAX TEMP:  74;

BOGALUSA*      FAIR      73  32  22 E12G17    30.10F
6HR MIN TEMP:  48; 6HR MAX TEMP:  74;

NEW ROADS*     FAIR      71  41  33 NE7       30.10F
6HR MIN TEMP:  48; 6HR MAX TEMP:  71;

GONZALES*      FAIR      73  42  33 NE3       30.08F
6HR MIN TEMP:  53; 6HR MAX TEMP:  72;

HAMMOND*       SUNNY     73  36  25 NE9       30.11F
HOUMA*         SUNNY     73  46  38 NE15      30.08F
PORT FOURCHON* CLEAR     72  54  53 NE14      30.09F

$$

LAZ041-044-053-054-301900-
SOUTHWEST LOUISIANA

CITY           SKY/WX    TMP DP  RH WIND       PRES   REMARKS
LAKE CHARLES   SUNNY     73  46  38 NE7       30.12F
6HR MIN TEMP:  52; 6HR MAX TEMP:  73;

LAFAYETTE      SUNNY     73  45  36 NE7       30.11F
6HR MIN TEMP:  50; 6HR MAX TEMP:  73;

PATTERSON      SUNNY     73  48  40 NE10      30.10F
6HR MIN TEMP:  57; 6HR MAX TEMP:  73;

SALT POINT       N/A     74  50  42 VRB5      30.08F
6HR MIN TEMP:  59; 6HR MAX TEMP:  75;

NEW IBERIA     SUNNY     74  46  36 NE10      30.10F
6HR MIN TEMP:  56; 6HR MAX TEMP:  74;

CHENAULT AIRPK NOT AVBL

$$

LAZ027-028-301900-
CENTRAL LOUISIANA

CITY           SKY/WX    TMP DP  RH WIND       PRES   REMARKS
FORT POLK      SUNNY     72  41  33 S5        30.12F
6HR MIN TEMP:  49; 6HR MAX TEMP:  71;

ALEXANDRIA INT SUNNY     71  40  32 E8        30.12F
6HR MIN TEMP:  41; 6HR MAX TEMP:  72;

ALEXANDRIA     SUNNY     72  45  37 E7        30.13F
6HR MIN TEMP:  40; 6HR MAX TEMP:  72;


$$

LAZ001-002-301900-
NORTHWEST LOUISIANA

CITY           SKY/WX    TMP DP  RH WIND       PRES   REMARKS
SHREVEPORT     SUNNY     71  43  36 S6        30.15F
6HR MIN TEMP:  44; 6HR MAX TEMP:  72;

BARKSDALE AFB  SUNNY     70  44  37 VRB5      30.15F
6HR MIN TEMP:  43; 6HR MAX TEMP:  71;

DTN SHREVEPORT SUNNY     70  42  36 S8        30.16F
6HR MIN TEMP:  43; 6HR MAX TEMP:  70;


$$

LAZ014-016-301900-
NORTHEAST LOUISIANA

CITY           SKY/WX    TMP DP  RH WIND       PRES   REMARKS
MONROE         SUNNY     71  44  37 N3        30.15F
6HR MIN TEMP:  44; 6HR MAX TEMP:  71;

TALLULAH       SUNNY     71  43  36 VRB5      30.13F
6HR MIN TEMP:  37; 6HR MAX TEMP:  71;


$$




USA.gov is the U.S. government's official web portal to all federal, state and local government web resources and services.